Location: Fort Worth, Tx
(32.7431°N, 97.3695°W)
Time: 03:02:41
(UTC-05:00)

Hubble Space Telescope - Visible Passes

Search period start: 06 December 2022 00:00
Search period end: 16 December 2022 00:00
Orbit: 530 x 534 km, 28.5° (Epoch: 05 December)

Date Brightness Start Highest point End Pass type
(mag) Time Alt. Az. Time Alt. Az. Time Alt. Az.
06 Dec 3.1 06:48:14 10° SSW 06:51:08 19° SSE 06:54:02 10° ESE visible
07 Dec 2.8 06:36:08 14° SSW 06:38:24 22° SSE 06:41:36 10° ESE visible
08 Dec 2.5 06:24:38 23° S 06:25:42 25° SSE 06:29:05 10° ESE visible
09 Dec 2.3 06:13:02 29° SSE 06:13:02 29° SSE 06:16:32 10° ESE visible
09 Dec 1.6 07:49:48 10° WSW 07:53:42 45° S 07:57:37 10° ESE visible
10 Dec 2.5 06:01:20 28° SE 06:01:20 28° SE 06:03:56 10° ESE visible
10 Dec 1.6 07:37:06 10° WSW 07:41:01 46° S 07:44:56 10° ESE visible
11 Dec 3.1 05:49:32 22° ESE 05:49:32 22° ESE 05:51:19 10° ESE visible
11 Dec 1.5 07:24:45 12° WSW 07:28:19 45° S 07:32:14 10° ESE visible
12 Dec 3.6 05:37:41 16° ESE 05:37:41 16° ESE 05:38:40 10° ESE visible
12 Dec 1.5 07:12:54 18° WSW 07:15:37 44° S 07:19:31 10° ESE visible
13 Dec 4.0 05:25:48 11° ESE 05:25:48 11° ESE 05:26:00 10° ESE visible
13 Dec 1.6 07:01:00 25° WSW 07:02:55 41° S 07:06:47 10° ESE visible
14 Dec 1.7 06:49:05 31° SW 06:50:12 38° S 06:54:01 10° ESE visible
15 Dec 1.7 06:37:09 34° SSW 06:37:28 35° S 06:41:13 10° SE visible
